GFSGBSN_250_rhum_102.txt.gz
RH
17 22 21 11 3 3 4 4 4 3 3 4 5 7 7 6 6 7 9 10 14 18 22 22 32 52 45 49 58 70 58 61 54 41 46 45 34 35 31 54 90 90 87 68 66 78 65
17 21 21 9 3 3 3 2 2 2 1 2 3 4 6 8 8 6 7 9 11 16 19 22 26 31 38 54 80 61 73 66 62 58 60 57 47 37 34 36 43 57 80 82 90 81 91
18 24 18 8 3 4 2 1 1 1 1 1 2 2 3 5 8 8 7 8 10 13 16 20 24 29 33 36 51 56 87 88 75 62 61 62 55 54 44 32 28 27 29 32 38 37 40
20 25 18 8 2 4 2 1 1 1 1 1 2 2 2 2 3 5 8 10 9 10 12 17 20 27 34 40 48 54 89 97 88 90 74 68 61 58 52 43 41 35 31 29 24 18 17
20 23 20 8 3 4 2 1 1 1 1 1 2 2 2 2 2 3 5 10 11 10 11 17 21 23 32 35 42 43 48 96 89 96 94 92 70 66 67 55 59 56 48 44 28 22 17
18 22 24 11 3 5 3 1 1 1 1 2 2 2 2 2 2 2 2 4 10 11 13 15 20 22 26 29 33 40 43 56 93 95 99 99 96 90 86 72 58 64 58 48 40 42 30
18 20 26 14 4 3 4 2 1 1 1 1 1 2 2 2 2 2 2 2 4 11 15 14 18 20 25 27 30 39 40 52 73 85 100 100 100 100 98 94 82 88 86 59 66 56 58
18 18 25 21 9 3 5 3 2 2 2 2 1 2 2 1 2 1 2 2 3 8 16 16 17 21 23 25 30 32 45 54 62 74 78 99 98 100 98 92 80 74 85 98 79 60 45
21 18 20 27 15 7 4 6 2 2 2 2 2 2 2 2 2 2 2 2 3 5 11 18 20 21 22 24 28 36 53 54 50 53 60 79 96 93 94 91 89 83 82 80 70 49 34
20 20 18 29 22 16 6 5 5 2 2 2 2 2 2 2 2 2 2 3 3 5 10 16 18 19 23 26 29 34 36 41 51 56 53 54 64 84 84 78 77 76 69 68 66 51 44
19 20 20 24 29 21 17 6 6 5 2 2 2 2 3 2 4 3 3 3 4 6 9 15 18 21 24 26 29 31 34 42 51 58 52 54 61 68 80 78 74 67 61 47 40 32 25
17 23 25 21 29 27 25 15 6 6 5 3 3 3 4 4 4 4 4 4 5 9 11 21 22 22 24 28 32 35 38 41 50 59 66 61 48 42 39 35 35 36 40 33 28 27 28
16 18 27 23 22 31 26 26 18 6 7 6 3 3 4 5 6 5 5 6 7 11 12 18 23 24 26 27 31 34 36 39 45 57 65 67 61 54 51 49 47 47 45 43 34 20 17
18 17 26 27 22 26 31 30 25 22 8 7 8 4 4 4 5 6 7 7 7 7 9 14 17 23 26 28 32 34 35 36 40 43 39 35 36 42 41 44 43 31 26 21 18 12 14
31 18 18 32 30 25 29 31 31 26 22 11 8 11 6 4 5 5 6 6 9 9 8 8 10 11 13 18 26 30 35 41 41 45 45 35 32 31 32 30 24 20 14 19 25 22 20
40 36 15 20 40 32 25 28 34 31 28 24 17 9 7 10 7 4 6 7 7 8 10 11 11 12 13 14 14 13 22 31 26 29 30 24 18 17 15 17 24 34 34 33 31 28 36
47 51 31 15 20 40 30 27 27 34 32 31 34 24 11 8 7 15 24 16 9 7 6 7 8 9 11 11 12 13 13 12 12 12 13 14 23 25 32 40 42 41 38 40 36 45 43
65 54 50 27 17 20 26 28 26 29 33 32 38 36 26 18 14 14 12 9 11 16 21 25 26 28 28 26 26 23 29 33 32 38 41 42 36 35 44 44 43 40 39 58 52 74 69
60 77 64 64 26 21 22 30 31 25 24 31 34 31 31 39 34 30 24 18 17 16 16 14 16 19 24 29 38 40 41 42 45 39 33 30 29 39 45 50 53 58 51 54 64 70 65
84 56 80 61 69 26 21 24 36 32 24 23 23 31 34 42 40 40 42 36 31 28 25 21 20 25 25 25 28 30 35 39 40 39 39 46 56 59 51 46 46 50 53 53 51 47 51
100 79 73 74 66 53 27 25 29 45 38 24 25 24 30 35 41 43 44 50 50 46 40 36 36 35 35 38 38 40 42 43 45 50 49 48 46 49 54 56 50 47 50 48 55 53 53
100 100 87 87 90 60 59 40 26 32 47 40 28 26 26 25 33 36 41 46 49 52 53 55 53 46 45 48 50 50 54 58 60 62 62 65 70 69 69 64 65 63 61 63 61 55 50
88 100 96 99 65 93 73 49 44 35 32 44 38 24 23 22 25 26 39 41 44 47 52 52 54 60 62 63 64 66 70 71 71 71 71 70 70 69 69 69 68 66 65 64 62 62 62
100 100 85 100 91 92 94 69 65 43 43 27 46 38 27 26 24 28 28 35 46 51 47 48 50 50 52 49 53 55 57 58 60 61 60 60 61 62 63 61 62 62 60 61 58 58 57
82 91 93 100 100 100 92 78 100 69 73 41 42 47 41 30 25 29 27 27 32 43 57 66 61 61 62 62 66 67 67 65 69 73 78 84 85 80 78 72 71 70 69 69 70 65 63
90 72 75 83 81 100 100 100 100 73 95 83 52 51 49 45 28 23 31 30 28 33 41 51 56 65 69 75 80 74 74 70 71 78 78 74 70 69 73 71 66 68 70 70 72 67 64
100 98 82 72 66 77 99 100 100 95 77 88 83 69 62 55 47 34 28 32 32 32 30 34 43 50 49 59 69 76 74 67 68 70 72 73 68 69 70 67 66 64 66 67 66 65 66
100 100 100 100 96 71 63 59 100 95 98 89 98 87 86 60 56 43 42 30 32 32 33 35 35 37 39 40 40 40 45 56 58 56 60 67 71 71 76 71 65 63 65 62 68 68 63
100 96 100 100 96 92 98 86 100 100 100 100 100 100 96 93 72 56 50 50 38 33 31 38 41 41 34 34 38 42 44 44 49 56 57 58 61 61 55 56 60 60 61 62 57 52 49

GFSGBSN_250_rhum_105.txt.gz
RH
15 20 20 9 3 2 3 2 1 1 1 1 1 2 2 4 6 6 4 4 7 11 15 21 26 28 37 27 55 71 60 58 52 54 42 36 47 71 84 84 76 98 99 90 98 88 85
17 21 17 6 2 3 2 1 1 1 1 1 1 1 2 3 3 7 6 4 4 6 12 15 22 28 32 36 50 84 100 83 74 71 55 49 38 25 19 19 24 38 76 89 98 96 95
15 21 17 6 2 3 2 1 1 1 1 1 1 1 2 2 3 5 8 6 5 6 8 12 19 24 29 33 47 74 86 100 85 84 72 61 56 51 42 29 30 29 25 26 33 40 46
14 21 20 8 3 3 2 1 1 1 1 1 1 1 2 2 3 4 6 8 6 6 7 10 15 20 26 31 36 53 78 100 90 93 83 74 65 73 63 43 38 39 30 22 22 22 25
15 20 24 13 3 4 2 2 1 1 1 1 1 1 1 2 2 4 5 12 9 7 7 9 14 18 22 26 30 38 46 79 100 100 100 96 83 84 76 62 48 50 45 38 34 27 23
25 20 24 21 4 4 2 2 2 2 1 1 1 2 2 2 2 2 4 18 12 8 8 10 14 16 21 26 28 31 33 62 100 100 100 100 100 91 85 77 81 77 61 54 43 42 29
28 19 23 27 12 4 4 2 2 2 2 1 1 2 2 2 2 2 3 7 7 10 10 9 11 17 19 22 25 28 33 42 72 100 100 98 99 93 99 93 86 86 83 69 53 50 52
28 23 19 27 23 5 5 3 2 3 2 2 1 2 2 2 2 2 2 5 6 13 12 11 11 16 18 20 23 29 30 38 48 58 61 92 97 98 95 100 100 99 91 82 70 60 55
19 25 20 26 27 16 4 6 2 3 3 3 2 2 2 2 2 2 2 4 7 18 15 13 12 13 14 17 22 26 29 34 39 45 59 66 72 82 98 99 98 94 92 94 86 79 71
22 18 25 23 26 27 12 5 6 2 4 4 4 2 2 2 2 2 3 3 7 20 20 15 13 14 14 17 22 25 29 32 36 39 41 44 46 50 59 88 99 94 86 81 78 81 68
31 21 23 23 24 26 26 10 6 6 3 5 5 4 3 3 3 3 3 4 8 18 21 16 15 14 15 17 21 24 27 30 33 36 37 47 56 67 79 78 92 89 85 79 70 60 51
40 25 18 27 21 23 28 25 8 7 7 4 5 6 5 4 4 4 5 6 14 24 29 23 19 17 18 18 21 24 28 31 35 36 40 60 63 62 59 58 57 55 52 46 49 56 57
36 33 25 19 22 23 23 30 26 10 8 10 4 5 6 6 6 7 8 10 14 23 22 22 21 20 20 21 22 24 27 31 34 37 51 57 52 52 53 49 45 44 44 44 46 45 37
29 44 27 26 21 23 23 24 32 29 14 10 12 7 5 6 8 8 8 13 18 16 26 26 26 25 23 24 25 27 29 31 34 37 38 41 46 51 56 64 66 65 61 57 49 39 29
31 40 29 26 30 20 21 21 21 31 34 23 12 9 11 5 5 7 8 10 10 12 20 28 27 29 28 27 28 28 30 32 33 36 39 43 49 58 67 69 61 49 37 32 28 25 20
45 38 36 32 27 27 23 20 20 23 29 37 32 17 8 8 9 5 6 11 15 16 16 13 18 28 32 37 37 38 40 42 44 46 46 44 44 45 40 37 31 32 25 22 20 28 35
71 45 33 30 42 37 24 27 22 20 24 29 39 36 21 12 8 12 16 13 9 8 11 15 16 18 21 19 19 24 28 30 27 28 26 25 27 24 22 20 20 25 36 45 64 69 66
88 69 50 30 37 54 39 26 27 19 22 26 30 36 37 32 27 19 12 13 12 16 17 17 16 14 18 19 22 19 19 18 19 20 22 29 35 33 35 39 45 56 62 93 80 70 62
100 69 59 78 33 40 58 46 35 25 21 23 29 28 35 46 48 37 30 25 22 18 19 23 27 31 34 36 40 38 39 37 34 36 46 56 54 49 49 60 64 58 66 71 63 69 75
100 80 54 68 75 46 61 60 47 36 24 20 23 29 34 42 44 50 49 41 36 36 41 42 42 42 43 43 44 45 50 54 56 60 59 58 61 62 64 66 64 68 65 65 65 64 64
82 99 67 53 100 61 83 63 61 47 39 28 22 24 27 34 40 43 43 51 53 52 48 46 48 50 54 55 54 56 59 60 60 61 62 62 62 64 62 61 58 54 51 51 52 54 55
46 97 80 62 62 63 54 88 62 69 52 42 31 24 25 25 31 35 46 46 46 48 53 59 64 66 66 69 69 73 74 74 74 74 72 72 77 76 77 75 75 76 73 72 71 68 66
43 72 54 73 79 61 65 77 74 55 56 59 45 38 32 24 24 28 31 35 42 48 48 49 51 52 54 55 57 60 59 59 60 60 62 64 65 65 64 64 64 63 61 59 59 58 58
50 97 90 69 96 77 57 68 64 59 56 62 63 46 41 35 26 25 31 33 35 37 38 45 52 53 58 56 58 62 65 66 64 63 62 60 60 58 58 56 52 53 53 52 53 52 53
79 100 85 100 79 79 80 58 98 47 51 67 67 70 57 48 39 29 25 30 35 34 35 37 41 43 49 53 58 62 73 78 72 72 72 69 63 61 62 64 68 70 73 74 74 72 72
99 100 95 99 100 78 89 92 100 73 92 62 61 80 70 66 57 44 32 27 22 30 35 35 35 37 40 47 53 56 61 58 57 63 68 72 70 72 74 73 78 70 66 68 67 62 58
100 100 100 100 100 81 77 85 100 90 100 100 98 74 92 82 75 65 51 37 33 26 27 36 39 35 35 38 44 48 51 52 54 56 58 60 60 62 58 57 54 55 56 57 53 50 52
100 97 100 81 100 86 88 76 100 100 100 100 100 91 90 98 91 82 71 59 44 38 29 24 33 35 39 37 36 34 39 43 48 50 50 49 46 46 46 51 53 51 53 53 51 51 52
100 95 89 92 60 60 82 83 82 73 94 100 100 100 99 95 100 100 97 82 69 52 41 36 28 25 25 47 48 45 44 42 50 58 62 68 63 62 63 63 60 60 56 65 65 66 62

GFSGBSN_250_rhum_108.txt.gz
RH
20 20 16 10 2 3 2 1 1 1 1 1 1 1 1 1 1 2 4 6 4 4 8 14 18 22 25 28 19 26 26 30 32 32 38 75 100 100 100 99 99 95 79 57 58 75 80
21 18 17 10 3 3 2 1 2 1 1 1 1 1 1 1 1 2 3 7 6 4 4 9 14 19 22 27 26 31 27 28 36 37 32 28 71 100 100 100 100 99 85 65 61 73 79
20 18 17 11 4 4 2 2 1 1 1 1 1 1 1 1 1 2 2 6 8 6 4 5 10 17 20 25 29 29 41 28 38 43 37 36 37 34 42 84 100 99 99 91 86 68 87
20 18 18 17 5 4 2 2 2 2 2 1 1 1 2 2 1 2 2 4 10 10 5 4 6 10 18 22 29 32 32 33 36 52 57 50 42 37 36 40 48 60 79 86 82 78 79
19 19 18 22 11 5 2 2 3 2 2 1 1 2 2 2 2 2 2 3 8 10 6 5 5 9 16 21 24 29 34 33 39 46 62 65 54 45 41 50 47 41 37 28 28 31 26
19 19 18 22 24 6 3 3 3 3 2 2 1 2 2 2 2 2 4 8 11 12 8 6 5 7 15 22 21 28 33 32 36 47 68 80 73 61 53 70 71 67 58 52 40 41 33
17 19 18 20 26 10 6 3 4 3 2 2 2 2 2 2 2 2 4 6 9 11 9 7 6 7 12 19 20 25 32 31 36 42 64 75 78 75 94 96 87 78 73 64 58 62 58
22 19 18 19 22 25 6 6 3 4 3 2 2 2 2 2 2 2 4 7 12 11 8 7 6 7 10 16 21 26 30 33 35 37 42 68 72 84 82 85 72 71 72 66 60 63 58
25 22 21 18 20 26 16 7 5 4 4 3 3 2 2 2 2 3 6 15 16 11 9 7 7 7 10 15 19 25 26 29 34 35 38 55 80 86 98 94 90 78 72 76 71 69 64
19 27 24 21 19 22 27 12 8 4 5 4 3 3 2 2 3 5 11 18 16 13 10 9 8 9 10 13 18 22 25 28 33 36 34 40 41 52 77 95 97 98 98 93 75 72 69
23 24 29 28 19 19 23 28 10 9 4 6 5 4 4 4 6 11 19 23 20 16 12 11 10 11 14 16 18 21 25 28 32 33 33 34 42 50 61 80 96 99 100 98 94 93 75
30 25 24 32 24 18 20 25 29 9 8 7 7 7 7 7 12 16 22 26 25 18 17 14 13 13 15 17 19 22 24 26 30 32 34 36 43 45 45 50 58 60 64 66 68 70 67
32 27 23 36 30 23 20 22 28 30 10 11 9 8 9 11 11 18 24 24 19 25 20 16 16 15 15 18 20 22 24 27 31 34 36 38 41 42 43 41 41 45 52 60 62 66 64
40 35 27 30 34 26 20 19 24 31 30 11 14 8 8 8 12 17 16 19 24 24 21 19 19 18 18 20 20 23 26 27 29 32 33 37 39 40 39 40 58 60 52 49 50 46 38
54 36 24 25 42 24 27 20 22 24 32 32 15 11 11 6 9 9 9 20 22 21 22 26 24 22 22 24 24 27 29 30 31 33 36 38 37 38 42 57 53 46 50 57 57 55 48
75 58 37 22 48 33 25 27 22 24 25 34 39 19 9 10 9 8 14 12 12 17 21 24 25 27 26 27 29 30 32 34 35 36 36 37 39 42 42 42 45 52 56 51 35 27 22
94 63 62 24 49 42 27 28 27 21 24 27 33 40 26 18 16 19 19 11 10 13 14 16 22 24 26 26 26 27 27 28 29 30 32 34 36 38 39 42 42 32 26 22 26 29 35
74 78 72 40 40 48 30 20 28 26 22 26 32 32 36 38 35 33 26 24 25 24 23 20 14 12 15 20 23 26 27 29 30 32 34 31 27 24 21 18 21 27 35 35 39 40 45
53 87 52 66 36 62 47 26 33 30 27 24 32 34 32 37 45 46 41 36 35 34 38 36 33 30 28 26 27 23 24 26 27 27 29 29 33 38 42 39 42 44 54 60 58 60 59
52 84 68 55 50 41 44 44 30 41 32 31 22 24 28 32 36 38 40 46 49 46 42 41 42 42 41 42 41 43 44 46 49 49 50 50 56 64 71 64 68 73 82 86 76 65 63
71 86 88 63 52 55 41 52 63 37 42 40 31 26 23 31 32 36 36 40 40 43 46 52 55 54 52 51 48 48 51 53 53 53 55 57 58 58 59 59 60 62 62 61 60 62 61
100 55 88 78 63 47 78 74 73 64 57 50 42 41 33 28 23 32 34 37 36 37 40 44 45 50 52 52 52 54 56 59 61 62 61 60 60 59 60 58 58 58 58 56 56 56 55
100 62 100 80 76 51 60 99 57 80 81 63 70 49 48 47 36 26 26 33 32 37 40 42 40 40 43 48 52 55 56 54 54 55 55 56 55 55 56 56 58 58 62 62 61 62 60
100 66 100 100 84 51 58 100 69 97 76 90 64 88 63 65 59 42 32 26 30 29 32 37 42 45 49 43 43 46 50 52 52 52 51 52 53 51 55 56 56 58 60 61 60 54 50
100 85 100 100 100 64 49 73 100 100 99 97 100 98 80 86 79 64 52 45 35 27 25 33 36 38 42 48 51 51 52 53 52 56 62 60 58 61 61 55 54 52 53 52 50 54 54
100 100 100 100 100 51 68 58 50 65 93 100 100 99 98 98 100 91 72 72 60 50 34 36 30 41 42 39 41 43 43 44 49 54 55 53 54 57 56 61 72 77 71 67 65 68 73
92 100 100 100 100 70 60 64 78 54 58 69 62 100 100 100 100 100 87 91 78 66 58 49 36 31 35 43 46 49 52 52 55 56 58 57 63 60 64 65 73 80 95 98 95 68 61
100 94 100 100 94 75 88 78 63 73 54 49 50 86 94 100 100 100 100 100 97 88 71 68 60 48 37 34 38 46 52 59 62 62 69 70 74 71 72 71 76 83 97 100 100 100 100
100 98 100 99 100 100 89 67 60 84 80 54 44 34 46 49 58 64 72 100 100 100 92 87 81 72 60 52 44 36 41 52 59 65 70 87 100 99 99 100 100 96 89 83 99 85 91

GFSGBSN_250_rhum_111.txt.gz
RH
17 19 15 14 6 3 2 2 2 1 1 1 1 1 1 1 1 1 2 2 7 6 8 14 15 22 24 21 24 24 22 25 27 24 24 32 41 87 83 73 80 97 78 78 70 71 56
16 16 15 14 10 4 2 2 2 2 1 1 1 1 1 1 1 1 1 2 3 7 5 7 14 17 25 26 27 27 25 24 25 27 25 24 28 46 41 50 88 92 86 84 78 81 66
14 17 15 14 15 5 3 2 2 2 1 1 1 1 1 1 1 1 1 2 2 3 8 6 7 14 19 29 32 25 28 20 25 27 33 32 41 48 50 45 85 89 81 79 96 89 81
15 15 16 15 18 6 3 3 2 2 1 1 1 2 1 1 1 1 2 2 2 2 5 9 6 7 15 25 32 29 29 28 26 32 33 36 35 41 36 35 43 59 62 82 80 96 84
21 14 14 14 18 8 4 3 3 2 2 2 1 2 1 1 1 2 2 2 2 2 4 10 10 6 9 20 32 33 30 30 30 30 32 37 39 35 35 38 33 35 40 67 92 94 100
19 16 15 16 19 12 6 3 3 3 2 2 2 2 2 2 2 2 2 2 2 3 7 10 10 7 5 9 25 33 36 35 32 33 36 39 39 44 41 47 44 40 32 26 45 50 66
25 20 15 18 17 19 6 4 4 3 2 2 2 2 2 2 2 3 2 3 4 10 12 11 8 6 5 6 18 25 31 35 33 33 34 32 33 46 55 45 50 41 38 34 30 31 24
27 22 16 18 18 22 10 7 4 5 3 3 2 2 3 4 5 5 6 6 8 11 13 12 9 6 5 6 9 22 32 35 32 34 36 37 35 38 36 46 53 50 50 46 50 48 42
32 25 16 17 19 21 21 8 7 6 6 4 4 4 7 11 13 14 14 14 13 13 11 8 6 5 5 6 9 19 26 32 33 33 37 39 36 35 39 48 50 62 59 49 47 45 46
33 24 21 16 18 20 24 21 10 6 8 8 8 7 9 12 14 12 12 12 10 9 9 7 6 5 5 6 8 15 21 27 31 31 33 35 34 34 39 46 54 64 73 73 55 52 53
40 28 27 18 18 18 21 28 20 9 9 10 7 11 13 18 19 15 12 11 10 9 8 8 7 6 6 7 8 14 19 25 27 29 32 36 38 37 42 42 50 67 82 83 89 90 83
46 37 26 23 20 19 20 25 31 19 8 9 11 11 15 17 19 18 15 12 12 10 10 9 8 8 8 8 10 14 19 22 25 28 32 37 39 37 36 36 42 52 61 77 87 88 90
47 46 28 28 24 23 21 22 28 32 22 10 8 9 10 12 12 13 14 15 13 15 13 11 11 9 9 9 10 14 20 24 27 31 35 37 37 37 38 39 42 44 54 58 61 63 66
49 40 32 30 30 23 24 23 24 28 34 32 15 8 9 8 13 16 15 17 20 18 15 14 14 14 13 13 14 16 20 26 31 33 33 34 37 37 35 36 39 39 38 42 41 38 38
58 37 50 30 35 30 26 25 24 24 26 33 37 25 13 9 8 14 22 26 20 20 21 19 18 17 19 18 18 20 23 25 29 31 32 36 35 35 36 36 33 35 36 35 35 38 45
56 56 37 38 36 37 35 26 27 25 24 26 31 37 34 23 16 12 17 23 23 21 22 22 23 21 20 21 22 22 23 25 26 28 30 30 31 31 32 32 35 36 34 38 39 40 45
63 72 53 41 31 50 35 42 30 29 26 27 30 31 30 35 40 30 22 14 10 13 21 28 26 26 26 24 24 24 24 25 26 27 28 30 32 32 34 35 36 38 37 39 41 36 28
85 69 63 39 31 36 70 34 53 36 30 29 29 30 29 29 36 44 42 34 21 19 14 15 21 27 29 28 28 29 30 31 31 32 33 32 33 34 34 35 36 36 31 24 39 38 45
100 63 83 53 36 30 58 63 48 54 47 38 29 31 28 28 35 36 39 41 46 37 31 30 24 18 16 17 20 22 27 31 32 32 32 31 31 28 25 31 39 50 61 65 64 60 62
100 98 81 66 38 39 37 67 65 55 47 52 37 32 33 29 30 33 35 38 41 40 46 49 44 38 35 36 34 34 31 29 30 31 33 34 34 37 36 43 51 52 50 50 51 51 53
100 100 84 85 42 45 51 68 67 60 42 63 71 37 43 30 33 37 34 34 38 42 45 46 44 45 49 53 54 51 49 48 47 49 50 52 53 55 55 56 56 57 56 56 56 56 57
100 100 88 100 56 40 53 88 98 82 62 57 77 72 35 57 33 31 33 40 37 38 40 41 44 50 52 54 53 50 47 45 45 46 46 47 48 51 52 55 56 59 62 63 65 70 76
100 100 98 100 86 50 57 49 71 90 84 57 73 84 43 44 69 57 36 33 37 44 40 38 40 41 45 48 53 54 52 55 57 58 61 63 63 62 61 61 62 57 55 51 51 51 52
100 100 100 98 100 72 53 49 48 42 54 73 77 84 62 54 46 70 75 38 43 34 38 47 50 48 42 40 42 46 52 56 52 51 51 50 51 55 60 59 55 55 60 64 70 68 67
100 100 100 100 100 98 77 60 60 45 48 40 54 70 70 67 51 52 66 81 53 57 47 41 42 37 48 55 52 51 46 49 54 54 54 57 59 62 76 90 98 98 93 86 96 90 74
94 100 100 100 100 100 100 83 68 58 55 51 30 40 42 59 46 63 60 80 80 70 80 64 54 52 52 42 46 54 57 58 65 66 72 74 81 88 82 65 65 78 91 81 76 93 73
78 93 100 100 100 100 100 89 77 70 56 68 52 36 28 29 44 37 48 65 89 76 98 91 80 76 72 66 59 50 49 49 57 65 70 74 74 82 84 97 100 100 94 97 88 84 96
100 91 100 100 100 100 100 100 96 76 64 58 74 64 42 29 24 32 35 35 37 62 87 89 96 92 93 93 88 87 81 63 52 48 46 50 61 66 66 61 63 70 70 67 71 80 83
96 92 68 100 100 100 100 100 100 100 91 72 59 76 90 66 47 34 21 24 30 27 36 49 66 71 83 88 95 90 82 94 88 80 67 59 51 48 46 71 70 58 56 63 60 63 69

GFSGBSN_250_rhum_114.txt.gz
RH
17 13 14 14 16 4 3 2 2 1 1 1 1 1 1 1 1 2 2 1 2 3 4 6 15 20 23 20 12 14 14 16 15 16 17 25 29 34 37 36 48 58 57 63 60 62 54
17 15 14 14 16 4 3 3 2 2 1 1 1 1 1 1 1 1 1 2 2 2 5 5 7 15 22 24 22 16 17 15 16 14 17 20 22 29 34 31 36 52 56 70 69 70 66
18 18 14 14 17 4 3 3 2 2 2 1 1 1 1 1 1 1 1 1 2 2 4 6 5 9 18 26 26 22 21 16 16 18 20 24 22 29 34 37 35 40 57 79 86 86 81
20 18 15 15 18 5 4 4 4 3 3 2 1 1 1 2 2 1 1 1 1 2 3 6 6 7 15 26 25 29 35 24 20 18 20 24 26 27 30 30 26 32 64 77 79 95 93
20 21 17 15 21 7 5 4 6 6 5 3 1 2 2 2 2 2 2 2 2 2 2 3 7 7 10 24 27 32 35 30 25 22 21 22 25 27 31 34 30 32 55 45 38 59 58
22 24 18 17 21 16 5 5 6 9 7 7 4 3 3 2 2 2 2 2 2 2 2 2 6 7 6 14 24 39 29 36 31 30 27 25 24 29 36 36 32 29 26 37 34 27 27
22 28 19 17 18 22 10 4 6 11 12 9 7 8 4 3 3 2 2 2 2 2 2 2 5 8 8 11 21 26 26 32 34 36 33 33 30 32 35 35 32 32 30 33 35 35 30
24 30 23 18 18 21 21 8 5 8 12 13 12 9 10 7 5 4 4 3 3 3 2 2 3 9 9 9 12 17 19 31 36 37 35 35 35 33 36 34 35 36 34 37 36 32 33
21 30 27 19 18 20 24 22 9 8 10 13 12 13 11 10 10 10 9 8 9 9 5 4 5 10 9 9 8 9 13 24 32 35 37 36 36 33 33 33 32 34 42 44 46 43 46
30 29 37 23 18 21 26 25 23 10 9 12 13 12 11 11 10 9 10 13 13 13 14 13 11 11 10 8 7 7 11 22 27 32 40 41 37 36 35 35 39 43 44 46 50 51 58
35 25 47 38 20 21 22 25 28 26 10 10 15 12 13 12 12 10 9 8 9 9 9 9 10 10 6 7 8 7 8 17 23 29 40 44 41 38 37 37 39 41 38 39 47 58 67
43 25 36 52 31 20 23 24 26 29 29 12 11 15 12 12 12 11 11 9 8 7 8 7 7 6 6 6 6 8 9 13 21 28 35 42 42 42 40 40 41 39 36 38 43 46 48
57 36 26 54 50 28 22 22 25 25 29 32 14 10 14 15 15 15 13 13 11 12 9 7 7 7 7 8 7 8 8 10 16 24 30 34 39 40 39 41 41 39 37 39 38 38 45
69 55 25 43 42 44 28 22 25 26 25 31 32 17 12 12 19 21 19 16 17 14 12 9 9 8 8 9 8 9 10 12 17 22 29 35 36 38 40 40 42 39 34 32 33 36 39
89 62 34 28 38 37 46 27 24 28 27 26 33 35 20 14 11 18 24 25 19 16 16 16 14 12 10 12 13 12 14 17 20 25 30 33 37 40 40 40 37 35 32 31 33 36 37
100 73 38 29 33 32 38 54 36 25 28 28 30 35 38 26 22 17 32 30 24 21 20 20 19 16 15 15 16 18 18 21 25 30 34 38 38 39 38 34 34 33 32 32 32 34 36
100 92 59 40 34 53 32 42 34 34 26 31 32 36 34 38 40 34 34 21 22 26 26 25 22 21 21 21 20 20 21 23 26 29 31 35 34 34 33 33 32 31 31 33 37 38 39
94 100 68 46 35 62 67 37 59 25 35 29 34 38 34 36 37 40 42 36 30 24 19 25 30 28 26 25 25 25 25 26 26 26 28 28 30 28 30 31 32 35 37 39 41 39 42
100 98 93 63 50 45 74 49 39 48 26 26 38 33 39 35 40 40 40 38 42 38 38 37 30 24 24 29 32 31 30 30 30 31 32 32 33 35 36 36 34 34 32 35 41 43 45
100 88 100 84 60 41 51 63 44 38 38 28 21 36 31 41 41 39 41 43 40 38 41 47 47 43 41 42 39 35 31 31 31 30 30 31 34 36 39 41 45 48 49 52 54 55 55
100 94 96 98 69 61 45 35 52 54 33 42 30 24 24 36 37 38 43 43 41 42 44 42 40 41 46 49 51 51 51 51 50 50 49 49 49 49 50 49 51 52 54 57 56 55 56
99 100 87 100 91 73 63 40 43 43 48 35 48 35 26 20 32 50 39 39 42 45 45 44 48 50 48 45 44 46 49 53 55 55 55 54 56 55 52 46 45 44 47 47 48 50 54
100 100 100 100 100 90 86 68 57 46 37 35 32 38 36 29 23 26 44 43 38 45 44 48 43 43 45 46 46 44 43 42 43 47 50 51 51 53 56 61 66 70 76 69 60 58 58
87 100 95 100 100 100 94 91 83 57 50 40 35 30 26 34 41 29 36 35 39 40 43 39 41 50 52 51 50 53 57 60 62 64 60 53 58 75 93 91 85 74 74 65 69 65 68
93 74 68 89 84 100 100 100 99 84 69 75 59 41 34 25 33 36 36 36 45 44 39 43 37 34 31 35 42 46 47 50 52 52 55 59 67 69 70 71 72 70 65 72 70 69 70
99 100 90 64 96 100 100 97 100 100 88 74 63 63 51 32 28 27 30 33 32 36 53 59 56 39 43 53 50 37 37 42 48 45 47 44 45 52 53 54 53 50 57 55 58 61 55
93 100 100 90 60 74 100 100 100 99 82 100 95 64 58 78 46 58 32 27 26 30 30 32 37 43 49 51 51 48 45 41 38 39 54 58 55 54 57 60 60 61 77 93 98 98 91
93 97 100 100 100 51 92 100 100 100 96 99 99 90 77 78 96 81 89 62 36 35 33 27 27 29 34 28 32 36 44 43 37 44 51 52 53 67 72 72 68 77 75 67 77 77 90
100 100 100 92 100 98 90 77 100 100 99 100 100 100 100 84 79 100 99 94 93 67 75 62 59 65 47 38 40 33 31 33 31 47 56 59 54 60 65 91 83 92 98 100 100 99 100

GFSGBSN_250_rhum_117.txt.gz
RH
21 18 14 14 17 8 4 3 3 2 2 2 1 1 1 1 1 1 1 2 1 1 2 5 11 18 18 9 10 11 12 13 15 24 39 53 59 58 54 58 63 65 60 56 70 67 65
24 19 19 15 18 10 4 4 4 4 3 2 2 1 1 2 1 1 1 1 2 1 2 3 7 14 19 16 11 12 11 11 12 14 17 23 28 35 38 39 41 49 52 52 53 54 55
26 21 21 16 17 14 4 4 4 6 4 4 3 2 1 2 2 1 1 1 1 2 2 3 5 9 20 21 19 15 12 10 11 12 14 15 16 17 21 27 32 40 46 47 44 47 50
24 25 21 17 15 17 6 4 4 6 7 5 4 3 2 2 2 2 2 1 2 2 2 3 4 6 14 20 26 19 15 15 12 12 12 15 16 16 18 20 23 29 33 37 40 41 43
23 26 22 20 14 19 10 5 4 6 8 8 6 4 2 2 2 2 2 2 2 2 2 3 3 5 8 20 27 24 21 23 16 15 15 14 14 16 17 18 18 23 23 27 32 35 37
22 29 22 23 16 21 18 6 5 5 7 9 8 7 4 2 2 2 2 2 2 2 2 2 2 4 6 17 26 23 22 30 24 19 18 17 17 18 19 19 20 24 26 26 27 32 28
23 30 26 23 20 18 25 9 7 8 9 9 8 9 8 4 2 2 2 2 2 2 2 2 2 3 6 10 18 14 22 36 32 27 28 24 22 19 18 17 19 23 22 25 24 25 24
23 24 40 26 22 18 23 23 8 11 14 11 9 8 9 9 6 3 2 2 2 2 3 3 3 4 6 10 15 16 18 36 31 28 29 26 24 25 23 22 20 22 25 27 29 29 31
37 24 51 30 23 20 21 27 13 8 16 16 11 9 8 9 10 10 7 3 3 2 3 3 3 6 8 11 12 15 15 35 32 30 32 32 28 26 26 23 22 22 27 30 31 31 35
34 26 40 45 28 22 21 26 27 12 10 18 14 11 9 8 10 11 13 13 7 3 3 3 3 5 10 11 9 10 10 30 35 33 35 37 35 29 32 31 31 29 29 28 27 34 38
44 29 29 62 36 24 21 25 29 25 12 17 18 14 12 9 8 8 10 14 20 14 8 4 4 8 11 12 11 9 10 24 33 31 38 41 42 38 37 39 38 38 37 36 35 39 42
56 34 26 67 41 34 23 24 29 29 27 14 17 18 15 14 12 9 9 8 9 13 22 19 14 12 10 9 8 7 8 17 32 34 38 42 45 46 46 42 40 38 38 40 42 43 45
57 37 30 36 54 35 24 22 28 27 29 31 18 16 19 17 16 15 11 8 8 10 8 9 14 15 13 12 12 12 10 14 27 35 39 42 44 47 48 46 44 42 42 43 42 44 42
94 49 39 31 52 38 26 23 24 27 26 31 37 21 18 19 19 18 18 15 13 9 8 7 7 9 9 9 11 12 12 10 18 29 33 36 40 40 43 49 48 45 45 44 44 42 37
100 60 53 32 44 45 33 22 21 28 29 27 35 40 31 17 21 21 23 25 19 15 12 10 9 8 8 8 8 11 16 13 14 18 25 28 34 38 42 50 49 48 45 44 42 39 35
100 92 57 42 39 46 41 33 21 22 27 29 28 36 37 40 28 17 28 27 24 23 20 18 16 14 11 9 10 11 13 14 17 20 25 29 36 41 45 46 46 46 44 42 38 36 32
99 100 64 54 39 39 43 45 30 22 23 26 30 33 31 40 49 40 33 22 27 25 24 24 21 20 19 17 15 16 17 18 19 20 24 28 33 36 41 45 42 42 38 37 35 33 34
68 100 78 70 48 41 41 47 47 30 22 28 28 31 33 31 37 48 54 38 23 23 28 28 27 26 27 25 23 21 22 24 26 29 30 34 36 41 43 41 38 38 36 34 36 34 35
46 93 95 85 66 49 45 41 41 40 28 21 30 30 34 33 38 37 41 46 52 45 33 25 28 30 29 29 30 29 28 27 27 28 30 31 34 34 35 35 34 33 34 34 31 34 44
50 48 93 100 83 67 55 48 35 38 33 24 21 24 26 40 34 39 37 40 42 45 48 49 42 33 28 28 30 30 30 30 31 32 31 31 32 32 32 32 31 32 41 49 49 46 47
92 42 65 93 100 88 70 64 45 48 36 32 26 22 23 28 33 34 35 41 42 40 38 43 46 46 48 48 48 44 41 37 35 35 36 38 40 42 44 48 48 47 47 48 50 44 47
100 90 46 75 99 100 96 90 79 60 54 41 28 34 24 21 24 26 30 33 33 34 38 43 42 40 38 38 38 39 40 43 45 45 46 44 43 42 43 43 42 44 46 49 49 50 49
100 100 82 50 87 99 100 97 85 70 74 55 36 29 30 30 24 24 24 28 34 32 33 31 32 35 40 44 45 47 45 45 46 46 45 46 49 49 51 56 56 54 57 55 58 70 58
100 100 100 89 62 92 97 100 100 83 97 72 62 39 36 29 30 27 27 22 25 26 26 28 35 34 28 29 32 36 35 38 43 47 47 48 47 52 56 53 55 56 61 58 56 53 59
43 87 100 100 86 64 93 100 100 81 84 88 100 83 55 55 42 29 28 27 24 23 21 24 25 26 26 25 31 29 30 30 31 34 35 36 39 38 41 42 39 37 45 50 60 59 62
75 50 54 100 85 88 65 88 100 100 87 78 73 100 79 77 78 57 52 35 33 30 29 35 30 27 25 28 28 25 30 28 30 32 34 33 32 37 43 48 53 48 46 52 60 68 72
100 95 59 62 99 86 91 79 63 90 100 100 89 99 100 95 85 93 95 80 66 54 50 60 61 61 64 60 61 51 52 44 29 29 33 40 42 44 47 44 41 46 47 52 59 57 62
44 100 93 64 96 93 67 86 88 60 96 71 100 100 92 99 100 100 82 100 95 100 95 89 84 82 89 95 94 92 89 72 65 53 49 40 32 42 44 36 40 36 43 45 48 52 49
47 74 91 89 100 100 100 100 100 99 98 92 74 100 100 100 91 89 100 100 97 70 98 100 100 100 97 85 93 94 95 96 98 79 76 80 66 62 49 44 55 53 52 61 66 63 62

GFSGBSN_250_rhum_123.txt.gz
RH
26 20 15 15 14 16 12 4 6 5 5 5 4 3 2 2 2 2 1 1 1 1 1 2 2 3 8 16 11 10 12 13 15 22 49 100 100 100 100 100 100 100 100 100 100 100 100
30 29 17 16 15 16 14 6 7 7 5 5 4 3 2 2 2 1 1 1 1 1 1 1 2 3 5 15 15 12 11 12 14 15 25 64 100 100 100 100 100 100 100 100 97 98 98
29 34 19 18 16 17 16 8 9 8 6 5 6 3 2 2 1 1 2 2 2 1 2 2 2 4 5 11 17 13 10 11 13 14 16 30 86 100 100 100 100 100 100 99 93 89 84
31 37 22 19 18 17 18 13 9 9 6 6 7 4 2 2 1 2 2 2 2 2 2 3 4 4 7 7 14 14 11 10 11 14 14 20 34 99 100 100 100 100 100 100 100 96 93
29 39 26 20 18 18 18 20 9 11 8 6 7 6 2 2 2 2 2 2 2 2 2 4 4 6 8 8 11 15 15 15 11 14 14 17 20 42 94 100 100 100 100 100 100 100 96
23 42 32 22 23 19 21 23 11 13 10 6 6 7 3 2 2 2 2 2 2 2 3 4 5 8 5 8 7 9 10 13 11 12 15 15 18 24 47 93 100 100 100 100 100 96 89
25 44 40 23 27 19 22 25 20 14 12 8 6 8 6 2 2 2 2 2 2 2 3 4 6 7 8 7 7 10 11 14 17 15 15 15 17 19 28 42 57 72 86 84 76 70 64
25 45 43 29 24 21 22 24 27 14 16 11 6 6 10 3 2 2 2 3 3 3 2 3 4 9 11 8 7 6 8 15 17 14 14 16 16 17 21 27 34 39 43 49 52 48 45
33 50 45 40 25 25 22 24 25 23 18 16 10 6 7 9 3 3 3 3 3 3 3 3 4 9 10 8 8 7 8 13 20 15 15 15 16 15 17 22 27 30 33 36 39 38 33
45 52 47 48 28 25 28 22 24 29 20 19 15 9 6 8 7 3 4 4 3 5 4 5 5 6 6 6 8 5 6 11 20 23 20 17 16 16 15 17 21 25 27 28 26 24 23
47 51 56 57 42 27 29 24 24 25 33 22 20 15 9 6 10 10 5 4 4 4 5 6 8 6 4 5 6 6 5 8 18 28 25 21 18 19 18 16 16 19 21 23 23 22 19
51 54 63 60 53 33 26 26 24 25 28 32 23 21 16 10 6 9 9 6 5 5 4 5 7 7 6 5 5 5 5 7 15 24 27 27 26 24 20 18 17 16 16 17 20 20 20
49 56 68 65 71 41 34 27 26 22 26 27 34 23 22 16 10 7 10 11 9 8 7 5 6 6 6 6 8 6 7 10 16 22 31 30 28 26 24 24 22 22 23 23 23 22 24
44 61 70 71 79 75 34 29 28 25 21 25 29 35 23 22 16 10 8 8 13 10 14 15 21 21 17 13 12 11 12 15 17 22 31 32 30 28 27 29 29 29 28 28 30 34 40
42 64 68 78 86 78 46 34 29 29 26 20 24 29 35 26 23 20 16 12 8 11 12 18 28 21 27 37 23 15 18 18 19 24 29 30 32 34 40 36 35 33 35 42 46 45 46
46 60 68 57 71 75 83 58 37 28 27 24 21 23 26 31 30 26 30 22 13 10 12 14 15 21 28 24 22 14 11 12 15 22 30 39 42 45 40 42 40 39 46 47 48 51 52
50 56 81 67 60 49 95 83 75 38 30 28 26 22 20 22 27 34 31 27 26 22 16 15 17 18 17 16 14 12 10 12 18 26 34 40 47 47 42 44 51 52 51 52 54 55 54
75 64 67 72 53 47 65 100 93 75 37 35 30 28 27 23 22 25 28 32 27 26 27 25 21 23 19 18 14 14 14 15 19 26 35 43 48 45 43 47 51 53 56 54 49 47 51
66 67 87 60 80 50 53 89 100 92 75 44 42 38 34 34 28 26 24 26 31 34 30 29 30 28 24 20 18 17 19 19 19 25 30 39 46 48 48 50 51 51 45 43 44 42 40
63 69 80 91 60 66 53 56 91 88 84 93 56 48 46 42 41 34 29 27 26 28 30 35 37 30 28 28 25 22 20 24 28 32 37 43 49 49 47 46 45 38 39 40 39 36 35
60 55 64 69 89 62 74 52 44 93 100 77 97 70 63 54 62 55 44 31 35 27 26 29 28 31 36 36 28 26 27 25 24 27 32 37 38 35 32 33 35 36 36 37 42 44 45
47 66 62 60 55 60 78 74 45 43 78 99 91 86 97 88 71 78 70 60 42 41 38 28 28 30 29 29 32 34 37 33 28 27 27 28 28 29 28 31 36 44 46 45 44 44 44
51 50 46 53 66 58 58 87 67 53 41 49 97 96 81 98 97 85 79 77 74 62 59 52 42 34 31 30 27 27 28 30 33 33 34 34 35 37 37 39 42 43 42 39 38 39 40
63 61 54 43 47 45 47 58 78 68 51 43 45 87 100 69 96 87 100 88 80 91 75 77 78 69 52 39 36 30 28 28 28 28 25 26 29 32 32 32 33 33 35 36 38 38 38
65 64 59 62 55 44 44 50 58 73 63 66 56 48 63 86 54 77 62 100 97 96 92 87 88 99 92 80 63 47 42 38 35 32 32 34 34 33 35 37 40 42 41 46 47 45 46
85 57 56 62 69 55 64 53 50 59 81 80 79 79 60 67 89 68 44 49 100 92 100 100 91 60 96 100 100 93 85 76 65 58 49 40 45 45 49 49 42 46 50 54 57 66 68
100 91 76 58 62 59 57 64 59 66 73 84 74 77 82 80 57 88 98 76 53 74 85 100 100 100 95 79 87 100 98 100 99 96 94 81 78 55 54 67 63 61 61 82 92 94 91
100 100 100 100 90 67 47 58 65 65 70 65 81 64 76 98 83 53 76 100 100 88 66 54 73 95 100 99 85 93 100 100 100 100 100 100 100 100 99 98 89 77 75 98 100 100 100
100 98 100 100 94 100 91 64 75 66 65 78 84 84 91 85 74 72 63 78 100 100 100 99 70 78 92 72 95 94 92 88 100 100 100 100 100 100 100 100 100 100 100 100 99 98 100